[[{"header":{"parameterUnit":"m.s-1","parameterCategory":1,"la1":30.2991,"la2":30.254,"lo1":-89.0895,"lo2":-89.0444,"dy":0.0017,"dx":0.0017,"nx":28,"ny":28,"refTime":"2025-12-03T03:00:00:Z","depth":0,"parameterNumber":2,"parameterNumberName":"U-component_of_WINDS"},"data":[0,0,0,0,0,0,0,0,0,0,0,0,0,0,0,0,0,0,0,0,0,0,0,0,0,0,0,0,0,0,0,0,0,0,0,0,0,0,0,0,0,0,0,0,0,0,0,0,0,0,0,0,0,0,0,0,0,0,-1.6337,-1.6336,0,-1.6291,-1.6291,-1.629,-1.6226,-1.6224,-1.6223,-1.6222,-1.6177,-1.6177,-1.6177,0,0,0,0,0,0,0,0,0,0,0,0,0,-1.6368,-1.6368,-1.6337,-1.6336,-1.6336,-1.6292,-1.6291,-1.629,-1.6226,-1.6224,-1.6223,-1.6222,-1.6177,-1.6177,-1.6177,0,0,0,0,0,0,0,0,0,0,0,0,0,-1.6342,-1.6368,-1.6337,-1.6298,-1.6294,-1.6292,-1.6291,-1.629,-1.6226,-1.6224,-1.6223,-1.6221,-1.6177,-1.6177,-1.6177,-1.6209,0,0,-1.6176,-1.6176,0,0,0,0,0,0,0,0,-1.6344,-1.6341,-1.6304,-1.6301,-1.6296,-1.6262,-1.6285,-1.6263,-1.6226,-1.6252,-1.6222,-1.622,-1.6207,-1.6204,-1.6199,-1.6207,-1.6205,-1.6176,-1.6176,-1.6176,-1.6176,0,0,0,0,0,0,0,-1.6345,-1.6342,-1.6319,-1.6304,-1.6299,-1.6283,-1.6278,-1.6281,-1.6239,-1.625,-1.6245,-1.624,-1.6204,-1.62,-1.6198,-1.6204,-1.6176,-1.6176,-1.6176,-1.6176,-1.6236,-1.6238,0,0,0,0,0,0,-1.6353,-1.6344,-1.632,-1.6317,-1.6316,-1.6284,-1.6278,-1.6275,-1.6239,-1.6232,-1.6242,-1.6237,-1.6201,-1.6198,-1.6196,-1.6232,-1.6176,-1.6176,-1.6175,-1.6234,-1.6237,-1.6238,0,0,0,0,0,0,-1.6354,-1.6351,-1.6322,-1.633,-1.6325,-1.6285,-1.6283,-1.6275,-1.627,-1.6233,-1.6226,-1.6245,-1.62,-1.6196,-1.6206,-1.6229,-1.6175,-1.6175,-1.6232,-1.6235,-1.6238,-1.6303,0,0,0,0,0,0,-1.6355,-1.6352,-1.6364,-1.633,-1.6325,-1.6333,-1.6284,-1.6275,-1.627,-1.6264,-1.6234,-1.6227,-1.6198,-1.6207,-1.6206,-1.6228,-1.6175,-1.623,-1.6234,-1.6237,-1.6299,-1.6308,-1.6315,0,0,0,0,0,-1.6356,-1.6384,-1.6365,-1.6362,-1.6338,-1.6334,-1.6331,-1.6296,-1.6272,-1.6283,-1.626,-1.6228,-1.6227,-1.6208,-1.6207,-1.6229,-1.6229,-1.6233,-1.6236,-1.6295,-1.6306,-1.6315,0,0,0,0,0,0,-1.6421,-1.6379,-1.6357,-1.6375,-1.6359,-1.6323,-1.6337,-1.6309,-1.63,-1.6295,-1.6252,-1.6246,-1.6261,-1.6246,-1.6226,-1.6258,-1.6223,-1.6227,-1.6268,-1.6278,-1.6286,-1.629,-1.6175,0,0,0,0,0,-1.6438,-1.6438,-1.6401,-1.642,-1.6413,-1.6377,-1.6374,-1.6348,-1.633,-1.6323,-1.63,-1.6284,-1.628,-1.6278,-1.6272,-1.6296,-1.6289,-1.631,-1.6319,-1.6326,-1.633,-1.6342,-1.6351,-1.6251,-1.6251,-1.6251,0,0,-1.6472,-1.6448,-1.6451,-1.6433,-1.6417,-1.6419,-1.6371,-1.6375,-1.6376,-1.6324,-1.6332,-1.6314,-1.6293,-1.6311,-1.6317,-1.6298,-1.6356,-1.6331,-1.6337,-1.6337,-1.6347,-1.6356,-1.6365,-1.6254,-1.6254,-1.6253,0,0,-1.6534,-1.6517,-1.6531,-1.6516,-1.6493,-1.6469,-1.6472,-1.6441,-1.6428,-1.6435,-1.6396,-1.6397,-1.639,-1.6377,-1.637,-1.6428,-1.6399,-1.6427,-1.6471,-1.6483,-1.6491,-1.6497,-1.6519,-1.6527,-1.6431,-1.6431,-1.6431,0,-1.6579,-1.658,-1.6542,-1.6548,-1.6541,-1.6494,-1.6508,-1.6496,-1.6473,-1.6469,-1.6448,-1.6439,-1.6422,-1.6436,-1.645,-1.6445,-1.6448,-1.643,-1.6492,-1.6499,-1.6505,-1.6524,-1.6532,-1.6435,-1.6434,-1.6434,-1.6434,0,-1.6636,-1.6637,-1.6652,-1.663,-1.6625,-1.6635,-1.6599,-1.6598,-1.6574,-1.6551,-1.656,-1.6537,-1.6526,-1.6527,-1.6503,-1.6538,-1.6527,-1.65,-1.6464,-1.6518,-1.6536,-1.6543,-1.644,-1.6439,-1.6438,-1.6437,0,0,-1.6739,-1.6696,-1.6702,-1.6692,-1.6663,-1.6663,-1.6672,-1.666,-1.6661,-1.6646,-1.6653,-1.6648,-1.6623,-1.6615,-1.6589,-1.66,-1.6648,-1.6571,-1.657,-1.6587,-1.6685,-1.6706,-1.6715,-1.6628,-1.6629,-1.663,-1.6687,0,-1.6796,-1.6808,-1.6774,-1.6794,-1.6794,-1.675,-1.6757,-1.674,-1.672,-1.6718,-1.6695,-1.6693,-1.666,-1.6655,-1.6663,-1.664,-1.6667,-1.6635,-1.6634,-1.6634,-1.6641,-1.6724,-1.6746,-1.6801,-1.6694,-1.6695,-1.6696,0,-1.6865,-1.6854,-1.6874,-1.6844,-1.6843,-1.685,-1.6837,-1.6836,-1.6816,-1.6801,-1.6792,-1.6762,-1.6768,-1.6733,-1.6742,-1.6721,-1.6718,-1.6707,-1.6708,-1.6707,-1.6669,-1.6726,-1.6817,-1.6826,-1.6706,-1.6705,-1.6704,0,-1.6938,-1.6928,-1.6939,-1.6932,-1.6897,-1.6903,-1.6889,-1.6868,-1.6864,-1.6853,-1.685,-1.684,-1.6834,-1.6828,-1.6796,-1.6773,-1.6809,-1.6771,-1.6796,-1.6797,-1.6806,-1.6806,-1.6899,-1.6804,-1.6804,-1.6804,-1.6803,0,-1.7006,-1.702,-1.6971,-1.6978,-1.6993,-1.6954,-1.697,-1.6952,-1.6933,-1.6936,-1.6897,-1.69,-1.6858,-1.6857,-1.6832,-1.6843,-1.6841,-1.6829,-1.6822,-1.6833,-1.6834,-1.6831,-1.6826,-1.6806,-1.6805,-1.6805,-1.6804,0,-1.7091,-1.7058,-1.7067,-1.7034,-1.7026,-1.7039,-1.701,-1.7015,-1.6992,-1.6997,-1.6995,-1.696,-1.6956,-1.6924,-1.6913,-1.6897,-1.6918,-1.6904,-1.6925,-1.692,-1.6948,-1.6946,-1.7042,-1.7053,-1.6951,-1.6952,-1.6953,0,-1.7136,-1.7146,-1.7114,-1.7113,-1.7101,-1.7099,-1.7094,-1.7057,-1.7053,-1.7032,-1.704,-1.7034,-1.7026,-1.7023,-1.6997,-1.6989,-1.6975,-1.7009,-1.6973,-1.6984,-1.6976,-1.6976,-1.6977,-1.7017,-1.7018,-1.7019,-1.702,0,-1.7221,-1.7205,-1.7199,-1.7188,-1.7183,-1.7173,-1.716,-1.7162,-1.712,-1.7118,-1.7114,-1.7109,-1.7098,-1.7093,-1.708,-1.7066,-1.7037,-1.7031,-1.7037,-1.7048,-1.706,-1.7055,-1.6946,-1.7029,-1.7028,-1.7028,-1.7027,-1.7027,-1.7288,-1.7295,-1.7273,-1.7268,-1.7255,-1.7244,-1.7247,-1.7224,-1.722,-1.7209,-1.7186,-1.7186,-1.7167,-1.7146,-1.7135,-1.7135,-1.7117,-1.7125,-1.7127,-1.713,-1.7136,-1.706,-1.7132,-1.7132,-1.7131,-1.7131,-1.7131,0,-1.7371,-1.7355,-1.7351,-1.7334,-1.7331,-1.7302,-1.7287,-1.7286,-1.7286,-1.727,-1.7264,-1.726,-1.7254,-1.7227,-1.7218,-1.7223,-1.721,-1.7222,-1.7222,-1.7219,-1.7152,-1.7148,-1.7234,-1.7234,-1.7234,-1.7234,-1.7234,-1.7234,-1.7414,-1.7424,-1.7405,-1.7409,-1.7392,-1.7391,-1.7385,-1.7375,-1.7362,-1.7359,-1.7354,-1.7336,-1.7316,-1.7306,-1.73,-1.7292,-1.7291,-1.7308,-1.7296,-1.7234,-1.7224,-1.7215,-1.7211,-1.7308,-1.7308,-1.7364,-1.7365,-1.7365]},{"header":{"parameterUnit":"m.s-1","parameterCategory":1,"la1":30.2991,"la2":30.254,"lo1":-89.0895,"lo2":-89.0444,"dy":0.0017,"dx":0.0017,"nx":28,"ny":28,"refTime":"2025-12-03T03:00:00:Z","depth":0,"parameterNumber":3,"parameterNumberName":"V-component_of_WINDS"},"data":[0,0,0,0,0,0,0,0,0,0,0,0,0,0,0,0,0,0,0,0,0,0,0,0,0,0,0,0,0,0,0,0,0,0,0,0,0,0,0,0,0,0,0,0,0,0,0,0,0,0,0,0,0,0,0,0,0,0,-0.3517,-0.3518,0,-0.3615,-0.3616,-0.3618,-0.3641,-0.364,-0.364,-0.3639,-0.3742,-0.3745,-0.3749,0,0,0,0,0,0,0,0,0,0,0,0,0,-0.3351,-0.3354,-0.3517,-0.3518,-0.3519,-0.3615,-0.3616,-0.3618,-0.3641,-0.364,-0.3639,-0.3639,-0.3741,-0.3745,-0.3749,0,0,0,0,0,0,0,0,0,0,0,0,0,-0.3433,-0.3355,-0.3517,-0.3542,-0.3546,-0.3615,-0.3617,-0.3618,-0.3641,-0.364,-0.3639,-0.3638,-0.374,-0.3744,-0.3749,-0.38,0,0,-0.3765,-0.3767,0,0,0,0,0,0,0,0,-0.3429,-0.3439,-0.3537,-0.3541,-0.3545,-0.3615,-0.3596,-0.3679,-0.3642,-0.3605,-0.3639,-0.3638,-0.3701,-0.3709,-0.373,-0.3805,-0.381,-0.3765,-0.3768,-0.377,-0.3772,0,0,0,0,0,0,0,-0.3423,-0.3435,-0.3556,-0.3539,-0.3543,-0.355,-0.356,-0.3612,-0.3657,-0.3608,-0.361,-0.3621,-0.3702,-0.3725,-0.3732,-0.3811,-0.3765,-0.377,-0.3773,-0.3775,-0.3933,-0.3934,0,0,0,0,0,0,-0.3412,-0.343,-0.3553,-0.3559,-0.3483,-0.3553,-0.3565,-0.3593,-0.3657,-0.3665,-0.3622,-0.3622,-0.3716,-0.3726,-0.3736,-0.38,-0.377,-0.3775,-0.3778,-0.3932,-0.3933,-0.3935,0,0,0,0,0,0,-0.3409,-0.3423,-0.3549,-0.3495,-0.3512,-0.3557,-0.3589,-0.3596,-0.3618,-0.3667,-0.3676,-0.3636,-0.3716,-0.3729,-0.3784,-0.3803,-0.3777,-0.3782,-0.3931,-0.3932,-0.3934,-0.3927,0,0,0,0,0,0,-0.3404,-0.3422,-0.3441,-0.3495,-0.3514,-0.3595,-0.359,-0.3598,-0.3626,-0.3627,-0.3683,-0.3691,-0.3716,-0.3776,-0.3789,-0.381,-0.3786,-0.3929,-0.3931,-0.3934,-0.3926,-0.3929,-0.3931,0,0,0,0,0,-0.3398,-0.3436,-0.3442,-0.3457,-0.354,-0.3596,-0.3607,-0.3634,-0.3628,-0.3648,-0.368,-0.3689,-0.3799,-0.3782,-0.3796,-0.3819,-0.3928,-0.3931,-0.3933,-0.3925,-0.3928,-0.3931,0,0,0,0,0,0,-0.3384,-0.3444,-0.3451,-0.3508,-0.3547,-0.36,-0.3626,-0.3637,-0.3679,-0.3678,-0.3711,-0.3724,-0.3777,-0.3803,-0.3783,-0.3871,-0.3863,-0.3869,-0.3852,-0.3856,-0.3858,-0.3851,-0.379,0,0,0,0,0,-0.3388,-0.3428,-0.3478,-0.3523,-0.3542,-0.3581,-0.3606,-0.3624,-0.3666,-0.3682,-0.3718,-0.3758,-0.3802,-0.383,-0.3873,-0.393,-0.3942,-0.3952,-0.3955,-0.3957,-0.3961,-0.3993,-0.3998,-0.3944,-0.3944,-0.3943,0,0,-0.3396,-0.3433,-0.3457,-0.3521,-0.3553,-0.3594,-0.3594,-0.3638,-0.3669,-0.3689,-0.3743,-0.3771,-0.3818,-0.3874,-0.39,-0.3898,-0.3979,-0.396,-0.3961,-0.3965,-0.3996,-0.4001,-0.4006,-0.3945,-0.3945,-0.3945,0,0,-0.3431,-0.3463,-0.3504,-0.3536,-0.3584,-0.3609,-0.3619,-0.367,-0.3689,-0.3743,-0.3759,-0.3797,-0.3871,-0.3904,-0.3931,-0.3977,-0.3987,-0.399,-0.4003,-0.4033,-0.4038,-0.4042,-0.4058,-0.4064,-0.3994,-0.3994,-0.3994,0,-0.3435,-0.3497,-0.3524,-0.3567,-0.3595,-0.3614,-0.3655,-0.3685,-0.3745,-0.3764,-0.376,-0.3853,-0.3886,-0.395,-0.3961,-0.3982,-0.3994,-0.3984,-0.4035,-0.4039,-0.4043,-0.4059,-0.4065,-0.3994,-0.3994,-0.3994,-0.3994,0,-0.35,-0.3542,-0.357,-0.3626,-0.3657,-0.3699,-0.3732,-0.3761,-0.3775,-0.3801,-0.3856,-0.3896,-0.3947,-0.3964,-0.3979,-0.4029,-0.4026,-0.4028,-0.4021,-0.4048,-0.4063,-0.407,-0.3994,-0.3994,-0.3994,-0.3994,0,0,-0.353,-0.36,-0.361,-0.3635,-0.3689,-0.3722,-0.3765,-0.3814,-0.3837,-0.3878,-0.3914,-0.3976,-0.3978,-0.4008,-0.4027,-0.4053,-0.4087,-0.4052,-0.4053,-0.4057,-0.4145,-0.4144,-0.4151,-0.4094,-0.4095,-0.4096,-0.4141,0,-0.3573,-0.3649,-0.3674,-0.3737,-0.3777,-0.3795,-0.3832,-0.3869,-0.3894,-0.3931,-0.3959,-0.4002,-0.4001,-0.4019,-0.4046,-0.4077,-0.4105,-0.4074,-0.4129,-0.4131,-0.4117,-0.4159,-0.4158,-0.4198,-0.4148,-0.4149,-0.4149,0,-0.3632,-0.3672,-0.3739,-0.3787,-0.3805,-0.3838,-0.3884,-0.392,-0.3962,-0.3978,-0.4011,-0.4027,-0.4073,-0.4062,-0.4125,-0.4103,-0.4127,-0.4146,-0.4148,-0.4155,-0.4142,-0.4167,-0.4212,-0.4218,-0.4159,-0.4159,-0.4158,0,-0.3648,-0.3719,-0.3768,-0.3789,-0.3846,-0.3869,-0.3894,-0.3935,-0.3962,-0.4003,-0.4021,-0.4067,-0.4092,-0.4127,-0.4156,-0.4145,-0.4216,-0.4208,-0.4231,-0.4231,-0.4246,-0.4245,-0.4296,-0.4261,-0.4261,-0.426,-0.426,0,-0.3693,-0.3733,-0.3775,-0.3806,-0.3852,-0.388,-0.3925,-0.3951,-0.3987,-0.4023,-0.4041,-0.4074,-0.411,-0.4148,-0.417,-0.4219,-0.423,-0.4245,-0.4251,-0.4244,-0.4242,-0.426,-0.4258,-0.4262,-0.4262,-0.4261,-0.4261,0,-0.3718,-0.3748,-0.3803,-0.3852,-0.3865,-0.3897,-0.3939,-0.3969,-0.3994,-0.4039,-0.4051,-0.4091,-0.4137,-0.4168,-0.4227,-0.4242,-0.4295,-0.43,-0.4281,-0.4283,-0.4305,-0.4303,-0.437,-0.4381,-0.4338,-0.4338,-0.4338,0,-0.3745,-0.3777,-0.3828,-0.3853,-0.3878,-0.3918,-0.3946,-0.3974,-0.4003,-0.4052,-0.4077,-0.4123,-0.4162,-0.4234,-0.4269,-0.4314,-0.432,-0.4341,-0.4327,-0.4319,-0.4321,-0.4319,-0.4322,-0.4343,-0.4343,-0.4344,-0.4344,0,-0.379,-0.3803,-0.3841,-0.3885,-0.3918,-0.3954,-0.3991,-0.401,-0.4045,-0.4076,-0.4122,-0.4152,-0.4212,-0.4258,-0.4306,-0.4332,-0.4344,-0.4348,-0.4356,-0.4349,-0.4337,-0.4344,-0.4287,-0.4346,-0.4346,-0.4346,-0.4346,-0.4346,-0.3817,-0.3845,-0.3886,-0.3929,-0.3959,-0.3992,-0.4023,-0.4051,-0.409,-0.414,-0.4154,-0.4202,-0.4243,-0.4309,-0.4336,-0.4374,-0.4373,-0.4384,-0.4387,-0.4389,-0.4389,-0.433,-0.4383,-0.4383,-0.4383,-0.4383,-0.4383,0,-0.3863,-0.3889,-0.3928,-0.3978,-0.4011,-0.4018,-0.4058,-0.4086,-0.4128,-0.4165,-0.4202,-0.4255,-0.43,-0.4337,-0.4383,-0.4407,-0.4413,-0.4418,-0.4417,-0.4423,-0.4388,-0.4377,-0.4412,-0.4412,-0.4412,-0.4412,-0.4412,-0.4412,-0.389,-0.3938,-0.3956,-0.4019,-0.4046,-0.4093,-0.4115,-0.4146,-0.4175,-0.4233,-0.427,-0.4293,-0.433,-0.4379,-0.442,-0.443,-0.4447,-0.445,-0.4461,-0.4428,-0.4425,-0.4422,-0.4411,-0.4453,-0.4453,-0.4492,-0.4493,-0.4493]}]]